Location: Moscow
(55.7500°N, 37.5830°E)
Time: 06:30:45
(UTC+03:00)

Transit 2A - Pass Details

Date: 01 December 2021
Orbit: 591 x 967 km, 66.7° (Epoch: 17 January)

Event Time Altitude Azimuth Distance (km) Brightness Sun altitude
Exits shadow 06:57:03 14° 316° (NW) 2,430 8.0 -12.7°
Maximum altitude 07:02:03 36° 18° (NNE) 1,492 7.5 -12.1°
Drops below altitude 10° 07:07:53 10° 84° (E) 2,704 9.9 -11.3°
Sets 07:10:40 0° 93° (E) 3,631 11.0 -10.9°
